Regional Weather Roundup
Issued by NWS

Home | Current Version | Previous Version | Graphics & Text | Print | Product List | Glossary On
Versions: 1 2 3 4 5 6 7 8 9 10 11 12 13 14 15 16 17 18 19 20 21 22 23 24 25 26 27 28 29 30 31 32 33 34 35 36 37 38 39 40 41 42 43 44 45 46 47 48 49 50
000
ASUS43 KMPX 171301
RWRMN
WEATHER ROUNDUP FOR MINNESOTA
NATIONAL WEATHER SERVICE TWIN CITIES/CHANHASSEN MN
800 AM CDT THU APR 17 2014


NOTE: "FAIR" INDICATES FEW OR NO CLOUDS BELOW 12,000 FEET WITH NO
SIGNIFICANT WEATHER AND/OR OBSTRUCTIONS TO VISIBILITY. N/A MEANS
CURRENT SKY AND/OR WEATHER CONDITIONS ARE NOT AVAILABLE.

MNZ060>063-068>070-171400-
   Twin Cities Metro

CITY           SKY/WX    TMP DP  RH WIND       PRES   REMARKS
TWIN CITIES    CLOUDY    29  27  92 NW13      30.16R WCI  19
ST PAUL        CLOUDY    31  27  85 NW13      30.17R WCI  21
CRYSTAL        CLOUDY    29  24  82 NW12      30.16R WCI  19
BLAINE         CLOUDY    30  28  93 NW10      30.15R WCI  21
EDEN PRAIRIE   CLOUDY    29  25  85 NW10      30.15R WCI  20
LAKEVILLE      CLOUDY    28  27  93 NW12      30.15R WCI  18
SOUTH ST PAUL  CLOUDY    33  31  93 N8G20     30.15R WCI  26
LAKE ELMO      CLOUDY    32  30  93 N10       30.15R WCI  24
$$
MNZ001>005-007-008-013>017-022>024-027-028-171400-
   Northwest Minnesota

CITY           SKY/WX    TMP DP  RH WIND       PRES   REMARKS
BEMIDJI        SUNNY     22  11  63 N7        30.26S WCI  14
HALLOCK        CLOUDY    23  12  63 N6        30.37R WCI  16
ROSEAU         SUNNY     21  10  63 NE3       30.35R
WARROAD        SUNNY     21   7  53 N8        30.34R WCI  12
THIEF RVR FALL SUNNY     25   9  50 N8        30.33R WCI  16
CROOKSTON      SUNNY     27  18  69 N7        30.35R WCI  19
FOSSTON        SUNNY     25  12  58 CALM      30.30R
DETROIT LAKES  SUNNY     23  19  86 NW3       30.29R
MOORHEAD       SUNNY     25  21  86 N8        30.33R WCI  16
PARK RAPIDS    MOSUNNY   24  13  62 N9        30.25R WCI  14
$$
MNZ006-009>011-018-025>026-171400-
   North Central Minnesota

CITY           SKY/WX    TMP DP  RH WIND       PRES   REMARKS
BAUDETTE       SUNNY     23   8  52 N3        30.32R
FLAG ISLAND    SUNNY     18   7  62 N7        30.34S WCI   8
INTL FALLS     MOSUNNY   22   9  57 N7        30.29R WCI  13
WASKISH        SUNNY     25   9  50 NE6       30.29S WCI  18
BIG FORK       CLOUDY    27  14  59 N6        30.25S WCI  20
LONGVILLE      CLOUDY    27  18  69 N6        30.24R WCI  20
GRAND RAPIDS   CLOUDY    25  18  74 N9        30.21R WCI  15
CRANE LAKE     LGT SNOW  25  19  80 N6        30.28S WCI  18
ORR            CLOUDY    25  18  74 N3        30.22R
COOK           CLOUDY    25  19  80 N5        30.23R WCI  19
$$
MNZ012-019>021-037-171400-
   Northeast Minnesota

CITY           SKY/WX    TMP DP  RH WIND       PRES   REMARKS
DULUTH         CLOUDY    26  21  81 N13       30.14R WCI  15
ELY            CLOUDY    23  21  93 N6        30.20R WCI  16
HIBBING        CLOUDY    26  20  77 N12       30.20R WCI  16
EVELETH        CLOUDY    27  21  80 N6G16     30.20R WCI  20
DULUTH HARBOR  CLOUDY    32  28  86 N13       30.18R WCI  22
TWO HARBORS    MIX PCPN  28  25  86 NE5       30.14R WCI  23
SILVER BAY     LGT SNOW  28  28 100 N9G20     30.13R WCI  20
GRAND MARAIS     N/A     31  29  92 NE16G29   30.19S WCI  20
G MARAIS ARPRT LGT SNOW  27  21  80 NE13      30.15R WCI  16
$$
MNZ029>031-032-039>041-046>048-054>057-064-171400-
   West Central Minnesota

CITY           SKY/WX    TMP DP  RH WIND       PRES   REMARKS
FERGUS FALLS   SUNNY     27  14  59 N7        30.28R WCI  19
WHEATON        SUNNY     27  21  80 NW6       30.33R WCI  20
MORRIS         SUNNY     21  18  86 NW12      30.27R WCI   9
ALEXANDRIA     SUNNY     23  16  74 N13       30.24R WCI  11
ELBOW LAKE     FAIR      23  18  83 N8        30.28R WCI  14
WADENA         SUNNY     21  14  73 N9        30.25R WCI  11
GLENWOOD       SUNNY     21  18  86 N10       30.24R WCI  10
APPLETON       MOSUNNY   23  18  80 N9        30.28R WCI  13
BENSON         SUNNY     21  16  79 N6        30.26R WCI  14
ORTONVILLE     MOSUNNY   21  18  86 NW9       30.30R WCI  11
MADISON        MOSUNNY   23  19  86 NW8       30.30R WCI  14
WILLMAR        FAIR      25  18  74 N8        30.25R WCI  16
$$
MNZ033>034-036-042>043-049>051-058-059-171400-
   Central Minnesota

CITY           SKY/WX    TMP DP  RH WIND       PRES   REMARKS
ST CLOUD       CLOUDY    28  21  75 N12       30.20R WCI  18
SAUK CENTRE    FAIR      23  18  80 NW9       30.23R WCI  13
PAYNESVILLE    MOSUNNY   21  17  83 CALM      30.23R
AITKIN         CLOUDY    28  19  69 N10       30.20R WCI  19
PINE RIVER     CLOUDY    27  19  74 N8        30.26R WCI  18
BRAINERD       CLOUDY    30  19  63 N9        30.22R WCI  22
STAPLES        MOSUNNY   21  16  79 N8        30.24R WCI  12
LONG PRAIRIE   PTSUNNY   23  18  80 NW9       30.22S WCI  13
LITTLE FALLS   CLOUDY    28  21  74 NW8       30.22R WCI  20
LITCHFIELD     CLOUDY    25  23  93 N9        30.22R WCI  15
BUFFALO        CLOUDY    28  24  82 N12G20    30.20R WCI  18
MAPLE LAKE     CLOUDY    29  26  86 N13G20    30.21R WCI  19
$$
MNZ037-044-045-052-053-171400-
   East Central Minnesota

CITY           SKY/WX    TMP DP  RH WIND       PRES   REMARKS
PRINCETON      CLOUDY    28  25  86 NW12G17   30.19R WCI  18
MORA           CLOUDY    28  23  80 N8G17     30.19R WCI  20
CAMBRIDGE      CLOUDY    30  23  74 NW12G17   30.15R WCI  21
RUSH CITY      CLOUDY    28  25  88 N12       30.16R WCI  18
MOOSE LAKE     CLOUDY    28  23  80 N9        30.15S WCI  20
HINCKLEY       CLOUDY    30  27  86 N12       30.16R WCI  21
CLOQUET        CLOUDY    25  21  86 N12       30.16R WCI  14
MCGREGOR       CLOUDY    28  23  80 N10       30.20R WCI  19
$$
MNZ071>073-080-081-089-090-097-098-171400-
   Southwest Minnesota

CITY           SKY/WX    TMP DP  RH WIND       PRES   REMARKS
MONTEVIDEO     MOSUNNY   25  19  80 N7        30.29R WCI  17
GRANITE FALLS  MOSUNNY   23  18  80 NW8       30.29R WCI  14
CANBY          PTSUNNY   24  20  85 W8        30.31R WCI  15
MARSHALL       MOSUNNY   21  16  79 NW12      30.26R WCI   9
REDWOOD FALLS  SUNNY     22  17  81 NW10      30.25R WCI  11
OLIVIA         SUNNY     18  14  86 NW6       30.24R WCI   9
PIPESTONE        N/A     19  16  86 N9        30.25R WCI   9
WINDOM         SUNNY     23  19  86 NW14      30.23R WCI  11
WORTHINGTON    SUNNY     23  16  74 NW15      30.24R WCI  10
JACKSON        SUNNY     25  21  86 NW20      30.21R WCI  11
TRACY          MOSUNNY   22  19  87 NW13G20   30.25R WCI  10
SLAYTON        SUNNY     21  19  92 NW9       30.25R WCI  11
$$
MNZ065>067-074>077-082>085-091>093-171400-
   South Central Minnesota

CITY           SKY/WX    TMP DP  RH WIND       PRES   REMARKS
MANKATO        CLOUDY    28  25  86 N20       30.19R WCI  15
NEW ULM        PTSUNNY   25  21  86 NW12      30.22R WCI  14
ST JAMES       CLOUDY    27  21  80 NW13      30.24R WCI  16
FAIRMONT       CLOUDY    25  21  86 NW18G25   30.21R WCI  11
GLENCOE        CLOUDY    29  23  78 NW14      30.19R WCI  18
FARIBAULT      CLOUDY    34  27  75 NW9       30.16R WCI  26
OWATONNA       CLOUDY    30  28  93 NW14      30.15R WCI  20
WASECA         CLOUDY    32  28  86 NW15      30.18R WCI  22
ALBERT LEA     CLOUDY    30  28  93 NW9G20    30.13R WCI  22
$$
MNZ078>079-086>088-094>096-171400-
   Southeast Minnesota

CITY           SKY/WX    TMP DP  RH WIND       PRES   REMARKS
ROCHESTER      CLOUDY    31  29  92 NW21      30.10R FOG     WCI  18
RED WING       CLOUDY    32  30  93 NW8       30.12R WCI  25
STANTON        CLOUDY    32  29  90 NW10      30.13R WCI  24
DODGE CENTER   CLOUDY    34  34 100 NW14      30.11R FOG     WCI  24
WINONA         CLOUDY    37  34  87 NW13      30.08R FOG
AUSTIN         CLOUDY    30  28  93 NW8       30.12R WCI  23
PRESTON        CLOUDY    32  32  99 NW14      30.09R FOG     WCI  22
$$
ABBREVIATIONS USED IN REMARKS
   TC - TEMPERATURES IN CELSIUS
  WCI - WIND CHILL INDEX
   HX - HEAT INDEX
  VSB - VISIBILITY
$$


USA.gov is the U.S. government's official web portal to all federal, state and local government web resources and services.